Regional Weather Roundup
Issued by NWS

Home | Current Version | Previous Version | Text Only | Print | Product List | Glossary On
Versions: 1 2 3 4 5 6 7 8 9 10 11 12 13 14 15 16 17 18 19 20 21 22 23 24 25 26 27 28 29 30 31 32 33 34 35 36 37 38 39 40 41 42 43 44 45 46 47 48 49 50
000
ASUS43 KTOP 180508
RWRKS

WEATHER ROUNDUP FOR KANSAS
NATIONAL WEATHER SERVICE GOODLAND KS
1100 PM CST WED DEC 17 2014

NOTE:  "FAIR" INDICATES FEW OR NO CLOUDS BELOW 12,000 FEET WITH NO
SIGNIFICANT WEATHER AND/OR OBSTRUCTIONS TO VISIBILITY.

KSZ001>006-013>018-027>032-041>047-180600-
NORTHWEST KANSAS

CITY           SKY/WX    TMP DP  RH WIND       PRES   REMARKS
GOODLAND       LGT SNOW  24  23  96 E5        30.06R FOG
HAYS           CLOUDY    27  18  69 E12       30.15R WCI  16
HILL CITY      CLOUDY    26  24  92 E8        30.14S FOG
RUSSELL        LGT SNOW  26  25  96 NE6       30.16R FOG
$$

KSZ061>065-074>080-084>089-180600-
SOUTHWEST KANSAS

CITY           SKY/WX    TMP DP  RH WIND       PRES   REMARKS
DODGE CITY     LGT SNOW  30  27  88 SE7       30.09R FOG
ELKHART          N/A     31  24  75 NW6         N/A
GARDEN CITY    LGT SNOW  30  29  96 E9        30.06R FOG
GREAT BEND     CLOUDY    28  25  86 E5        30.15S VSB 1/2
LIBERAL        CLOUDY    36  32  87 SE7       30.06R
PRATT          LGT SNOW  30  30 100 E6        30.13S
$$

KSZ066>073-081>083-090>101-180600-
SOUTHEAST KANSAS

CITY           SKY/WX    TMP DP  RH WIND       PRES   REMARKS
CHANUTE        LGT SNOW  31  30  96 E5        30.23S FOG
COFFEYVILLE    MIX PCPN  32  32 100 E5        30.22F FOG
HUTCHINSON     LGT SNOW  30  26  85 E9        30.17S FOG
MEDICINE LODGE   N/A     31  31 100 E8        30.13R
NEWTON         CLOUDY    28  23  80 E7        30.19S
PARSONS        FRZ RAIN  33  32  96 CALM      30.23F FOG
WICHITA INTL   LGT SNOW  31  28  89 E10       30.17S FOG     WCI  22
WICHITA JABRA  LGT SNOW  29  27  92 E7        30.18S FOG
WICHITA MCCONL LGT SNOW  30  28  95 E9        30.17F FOG
WINFIELD       CLOUDY    32  31  96 E8        30.19F FOG
$$

KSZ007>012-019>026-033>040-048>060-102>105-180600-
NORTHEAST KANSAS

CITY           SKY/WX    TMP DP  RH WIND       PRES   REMARKS
CONCORDIA      LGT SNOW  26  22  84 E6        30.21R FOG
EMPORIA        LGT SNOW  28  27  96 E3        30.22S FOG
LAWRENCE       SNOW      29  27  92 E6        30.26R VSB 1/2
MANHATTAN      LGT SNOW  27  26  96 E6        30.23S VSB 3/4
MARYSVILLE     CLOUDY    28  23  80 E6        30.23R
OLATHE IND     LGT SNOW  28  26  92 E6        30.25S VSB 1
OLATHE EXE     LGT SNOW  28  26  92 E3        30.24R VSB 3/4
SALINA         LGT SNOW  29  27  92 E6        30.21R FOG
TOPEKA BILLARD LGT SNOW  30  24  78 NE5       30.26R
TOPEKA FORBES  LGT SNOW  29  26  89 CALM      30.24R VSB 1
$$


USA.gov is the U.S. government's official web portal to all federal, state and local government web resources and services.